Regional Weather Roundup
Issued by NWS

Home | Current Version | Previous Version | Text Only | Print | Product List | Glossary On
Versions: 1 2 3 4 5 6 7 8 9 10 11 12 13 14 15 16 17 18 19 20 21 22 23 24 25 26 27 28 29 30 31 32 33 34 35 36 37 38 39 40 41 42 43 44 45 46 47 48 49 50
000
ASUS43 KDMX 060908
RWRIA

WEATHER ROUNDUP FOR IOWA
NATIONAL WEATHER SERVICE DES MOINES IA
300 AM CST SAT FEB 06 2016

NOTE: "FAIR" INDICATES FEW OR NO CLOUDS BELOW 12,000 FEET WITH NO
SIGNIFICANT WEATHER AND/OR OBSTRUCTIONS TO VISIBILITY.

* - THESE STATIONS ARE NOT NWS STATIONS...THUS NOT UNDER NWS
QUALITY CONTROL.  THEY ALSO DO NOT REPORT WEATHER SUCH
AS PRECIPITATION OR FOG.

IAZ001>003-012>014-020>022-031>034-043>046-061000-
   NORTHWEST IOWA

CITY           SKY/WX    TMP DP  RH WIND       PRES   REMARKS
CARROLL *      CLOUDY    30  28  93 W7        30.22F FOG     WCI  23
CHEROKEE *     CLOUDY    27  27 100 SW5       30.22S FOG     WCI  21
DENISON *      CLOUDY    28  28 100 W3        30.22S FOG
LE MARS *      FOG       18  18 100 CALM      30.23S VSB 0
ORANGE CITY *  FOG       19  19 100 CALM      30.20S VSB 1/4
SHELDON *      FOG       16  16 100 CALM      30.18F VSB 0
SIOUX CITY     FOG       18  14  84 S3        30.24S VSB 1/4
SPENCER        PTCLDY    19  16  88 SW7       30.19S FOG     WCI  10
STORM LAKE *   CLOUDY    27  27 100 W10       30.21S WCI  17
$$

IAZ055>058-069>071-079>083-090>094-061000-
   SOUTHWEST IOWA

CITY           SKY/WX    TMP DP  RH WIND       PRES   REMARKS
ATLANTIC *     CLOUDY    28  28 100 W3        30.25R FOG
AUDUBON *      FOG       28  27  93 W3        30.24S VSB 3/4
CLARINDA *     CLOUDY    28  28 100 CALM      30.27F
COUNCIL BLFS * CLOUDY    30  28  93 NW7       30.25S WCI  23
CRESTON *      CLOUDY    21  21 100 W6        30.24F FOG     WCI  14
HARLAN  *      CLOUDY    28  28 100 NW7       30.28R FOG     WCI  21
LAMONI         CLEAR     27  21  78 SW5       30.23F WCI  22
RED OAK *      CLOUDY    32  32 100 W6        30.26R WCI  26
SHENANDOAH *   CLOUDY    30  30 100 SW3       30.27S
$$

IAZ047>049-059>061-072>074-084-061000-
   CENTRAL IOWA

CITY           SKY/WX    TMP DP  RH WIND       PRES   REMARKS
AMES           CLOUDY    30  27  88 SW7       30.23S WCI  23
ANKENY *       CLOUDY    30  30 100 SW5       30.24S WCI  25
BOONE *        CLOUDY    30  28  93 SW6       30.21F FOG     WCI  24
CHARITON *     PTCLDY    25  21  86 S5        30.24F WCI  19
DES MOINES     CLOUDY    30  25  81 SW6       30.24S WCI  24
GRINNELL*      CLOUDY    30  27  86 SW7       30.23F WCI  23
KNOXVILLE *    PTCLDY    27  21  80 S5        30.23F WCI  21
MARSHALLTOWN   CLOUDY    29  26  89 SW7       30.22F WCI  22
NEWTON *       CLOUDY    30  28  93 SW7       30.23F WCI  23
PELLA *        CLEAR     28  23  80 CALM      30.26S
$$

IAZ004>006-015-016-023>025-035-036-061000-
   NORTH CENTRAL IOWA

CITY           SKY/WX    TMP DP  RH WIND       PRES   REMARKS
ALGONA *       CLOUDY    27  27 100 W10       30.20R FOG     WCI  17
CLARION *      CLOUDY    28  27  93 SW9       30.20F FOG     WCI  20
ESTHERVILLE    CLOUDY    24  24 100 W10       30.18S FOG     WCI  14
FORT DODGE *   CLOUDY    28  25  86 W7        30.22F WCI  21
MASON CITY     CLOUDY    27  26  96 W8        30.20S FOG     WCI  19
FOREST CITY *  CLOUDY    28  28 100 W7        30.19S FOG     WCI  21
WEBSTER CITY * CLOUDY    30  28  93 SW8       30.20S FOG     WCI  23
IOWA FALLS *   CLOUDY    30  28  93 SW9       30.21F WCI  22
$$

IAZ007>011-017>019-026>030-037>042-050>054-066-061000-
   NORTHEAST IOWA

CITY           SKY/WX    TMP DP  RH WIND       PRES   REMARKS
CEDAR RAPIDS   CLOUDY    28  24  85 SW7       30.23F WCI  21
CHARLES CITY * CLOUDY    27  27 100 SW9       30.20S FOG     WCI  17
CLINTON *      CLOUDY    25  22  88 S6        30.27F WCI  18
DECORAH *      CLOUDY    27  27 100 SW5G13    30.18S WCI  21
DUBUQUE        MOCLDY    24  20  84 SW5       30.23S WCI  18
MONTICELLO *   CLOUDY    28  23  80 SW5       30.24F WCI  23
OELWEIN *      CLOUDY    27  25  93 SW13      30.21F WCI  16
WATERLOO       CLOUDY    28  25  88 SW10      30.22F WCI  19
$$

IAZ064-065-067-068-078-061000-
   EAST CENTRAL IOWA

CITY           SKY/WX    TMP DP  RH WIND       PRES   REMARKS
DAVENPORT      CLEAR     26  20  77 S6        30.27F WCI  19
IOWA CITY      CLOUDY    27  22  81 S3        30.27F
MT. PLEASANT * CLOUDY    32  27  80 S6        30.28F WCI  26
MUSCATINE *    CLOUDY    28  25  86 S6        30.29F WCI  22
QUAD CITIES    PTCLDY    28  21  75 S3        30.27F
$$

IAZ062-063-075>077-085>089-095>099-061000-
   SOUTHEAST IOWA

CITY           SKY/WX    TMP DP  RH WIND       PRES   REMARKS
BURLINGTON     CLOUDY    29  24  82 S3        30.28F
FAIRFIELD *    MOCLDY    27  21  80 S6        30.26F WCI  20
FORT MADISON * CLOUDY    28  25  86 CALM      30.29F
KEOKUK *       PTCLDY    30  21  69 CALM      30.28F
OSKALOOSA *      N/A     25  23  93 S8        30.25F WCI  16
CENTERVILLE *    N/A    N/A N/A N/A MISG        N/A
OTTUMWA        CLEAR     25  21  85 SE3       30.25F
WASHINGTON *   CLOUDY    30  25  80 S5        30.28F WCI  25
$$

ABBREVIATIONS USED IN REMARKS
   TC - TEMPERATURES IN CELSIUS
  WCI - WIND CHILL INDEX
   HX - HEAT INDEX
  VSB - VISIBILITY
$$




USA.gov is the U.S. government's official web portal to all federal, state and local government web resources and services.